User: anonymous   Login
Location: Unspecified
(0.0000°N, 0.0000°E)
Time: 11:15:36
(UTC+00:00)
Language:

DX 1 - Orbit

View from above orbital plane
View from above orbital plane
View from above satellite
View from above satellite

Ground track
Ground track

The orbit data is extracted from the following two-line orbital elements,

1 40071U 14037C   19348.01985407  .00000089  00000-0  18908-4 0  9993
2 40071  98.4438 151.2526 0008950  21.7229 338.4357 14.81316639293657
Epoch (UTC): 14 December 2019 00:28:35
Eccentricity: 0.0008950
inclination: 98.4438°
perigee height: 619 km
apogee height: 631 km
right ascension of ascending node: 151.2526°
argument of perigee: 21.7229°
revolutions per day: 14.81316639
mean anomaly at epoch: 338.4357°
orbit number at epoch: 29365

The dashed part of the orbit path shows where the satellite is in the earth's shadow,  

DLR